Location: Beaufort Park
(39.1418°N, 76.9433°W)
Time: 20:21:08
(UTC+00:00)

Cosmos 1980 Rocket - Pass Details

Date: 29 October 2020
Orbit: 830 x 848 km, 71.0° (Epoch: 02 December)

Event Time Altitude Azimuth Distance (km) Brightness Sun altitude
Rises 22:33:20 0° 155° (SSE) 3,377 5.2 -5.3°
Reaches altitude 10° 22:36:42 10° 135° (SE) 2,444 4.3 -5.9°
Maximum altitude 22:39:58 16° 99° (E) 2,050 3.7 -6.5°
Drops below altitude 10° 22:43:16 10° 62° (ENE) 2,447 4.0 -7.1°
Enters shadow 22:44:50 - 51° (NE) 2,846 4.4 -7.4°
